Location: Laterina
(43.5167°N, 11.7167°E)
Time: 16:25:26
(UTC+00:00)

Cosmos 1025 Rocket - Pass Details

Date: 24 September 2020
Orbit: 595 x 617 km, 82.5° (Epoch: 26 October)

Event Time Altitude Azimuth Distance (km) Brightness Sun altitude
Rises 18:29:04 0° 347° (NNW) 2,893 6.9 -15.7°
Reaches altitude 10° 18:31:19 10° 342° (NNW) 1,985 6.1 -16.1°
Maximum altitude 18:35:37 54° 266° (W) 753 3.8 -16.9°
Drops below altitude 10° 18:39:52 10° 189° (S) 1,975 5.6 -17.6°
Sets 18:42:07 0° 185° (S) 2,875 6.4 -18.0°
